Weather History for Osoyoos, British Columbia

Change the Weather History Date:

Saturday, January 25, 2014

  Actual Average Record
Temperature  
Mean Temperature 32 °F -  
Max Temperature 33 °F - - ()
Min Temperature 31 °F - - ()
Degree Days  
Heating Degree Days 33    
Moisture  
Dew Point 27 °F    
Average Humidity 82    
Maximum Humidity 92    
Minimum Humidity 67    
Precipitation  
Precipitation 0.00 in - - ()
Sea Level Pressure  
Sea Level Pressure 30.52 in    
Wind  
Wind Speed 4 mph ()    
Max Wind Speed 7 mph    
Max Gust Speed -    
T = Trace of Precipitation, MM = Missing Value Source: Averaged Metar Reports

Daily Weather History Graph

Daily Weather History Graph

Search for Another Location

Airport:

Trip Planner

Search our weather history database for the weather conditions in past years. The results will help you decide how hot, cold, wet, or windy it might be!

Date:

Astronomy

Jan. 25, 2014 Rise Set
Actual Time 7:37 AM PST 4:43 PM PST
Civil Twilight 7:02 AM PST 5:18 PM PST
Nautical Twilight 6:23 AM PST 5:57 PM PST
Astronomical Twilight 5:46 AM PST 6:34 PM PST
Moon 2:12 AM PST (1/25) 11:48 AM PST (1/25)
Length of Visible Light 10h 16m
Length of Day
9h 06m
Waning Crescent, 33% of the Moon is Illuminated
Jan 25
Waning Crescent
Jan 30
New
Feb 6
First Quarter
Feb 14
Full
Feb 22
Last Quarter

Hourly Weather History & Observations

Time (PST) Temp. Windchill Dew Point Humidity Pressure Visibility Wind Dir Wind Speed Gust Speed Precip Events Conditions
12:00 AM 32.9 °F 29.8 °F 29.5 °F 87% 30.60 in - SSE 3.5 mph - N/A   Unknown
1:00 AM 33.1 °F 30.0 °F 29.5 °F 87% 30.61 in - SE 3.5 mph - N/A   Unknown
2:00 AM 33.1 °F 30.0 °F 29.3 °F 86% 30.61 in - SSE 3.5 mph - N/A   Unknown
3:00 AM 33.1 °F 28.7 °F 29.1 °F 85% 30.59 in - SSE 4.6 mph - N/A   Unknown
4:00 AM 32 °F - 29 °F 85% 30.57 in - SSE 4.6 mph - -  
4:00 AM 31.6 °F 27.0 °F 29.1 °F 90% 30.57 in - SSE 4.6 mph - N/A   Unknown
5:00 AM 31.6 °F 25.1 °F 29.5 °F 92% 30.57 in - SSE 6.9 mph - N/A   Unknown
6:00 AM 31.8 °F 26.2 °F 29.3 °F 90% 30.56 in - South 5.8 mph - N/A   Unknown
7:00 AM 32.0 °F 26.4 °F 28.8 °F 88% 30.56 in - South 5.8 mph - N/A   Unknown
8:00 AM 31.8 °F 28.5 °F 28.2 °F 87% 30.56 in - SSE 3.5 mph - N/A   Unknown
9:00 AM 32.0 °F 26.4 °F 28.2 °F 86% 30.56 in - SSE 5.8 mph - N/A   Unknown
10:00 AM 32 °F - 28 °F 79% 30.55 in - South 5.8 mph - -  
10:00 AM 31.8 °F 26.2 °F 27.9 °F 85% 30.55 in - South 5.8 mph - N/A   Unknown
11:00 AM 31.8 °F 26.2 °F 27.9 °F 85% 30.55 in - SSE 5.8 mph - N/A   Unknown
12:00 PM 31.3 °F 25.6 °F 27.1 °F 85% 30.53 in - SSE 5.8 mph - N/A   Unknown
1:00 PM 33.1 °F 26.9 °F 26.4 °F 77% 30.51 in - SSE 6.9 mph - N/A   Unknown
2:00 PM 33.1 °F 27.7 °F 26.1 °F 75% 30.50 in - SSE 5.8 mph - N/A   Unknown
3:00 PM 32.9 °F 27.5 °F 26.2 °F 76% 30.50 in - SSE 5.8 mph - N/A   Unknown
4:00 PM 33 °F - 26 °F 67% 30.49 in - SE 3.5 mph - -  
4:00 PM 31.3 °F 27.9 °F 26.1 °F 81% 30.49 in - SE 3.5 mph - N/A   Unknown
5:00 PM 31.6 °F 28.3 °F 25.7 °F 79% 30.48 in - SE 3.5 mph - N/A   Unknown
6:00 PM 31.8 °F - 25.9 °F 79% 30.47 in - ESE 2.3 mph - N/A   Unknown
7:00 PM 32.0 °F - 25.7 °F 78% 30.46 in - ESE 2.3 mph - N/A   Unknown
8:00 PM 31.8 °F - 25.7 °F 78% 30.45 in - ESE 1.2 mph - N/A   Unknown
9:00 PM 31.5 °F - 25.7 °F 79% 30.43 in - SE 1.2 mph - N/A   Unknown
10:00 PM 31 °F - 26 °F 74% 30.43 in - South 1.2 mph - -  
10:00 PM 31.5 °F - 25.9 °F 80% 30.43 in - South 1.2 mph - N/A   Unknown
11:00 PM 31.5 °F - 24.4 °F 75% 30.42 in - ESE 1.2 mph - N/A   Unknown